Gulkana, AK

3:45 AM AKDT on August 19, 2017 (GMT -0800)
Gulkana

Weather History for PAGK - March, 2013

Change the Weather History Date:

Tuesday, March 12, 2013

  Actual Average Record
Temperature  
Mean Temperature 14 °F -  
Max Temperature 19 °F 28 °F 42 °F (1958)
Min Temperature 10 °F 3 °F -34 °F (1964)
Degree Days  
Heating Degree Days 50    
Moisture  
Dew Point -8 °F    
Average Humidity 31    
Maximum Humidity 47    
Minimum Humidity 16    
Precipitation  
Precipitation 0.00 in - - ()
Snow  
Snow 0.00 in - - ()
Snow Depth 9.00 in    
Sea Level Pressure  
Sea Level Pressure 30.25 in    
Wind  
Wind Speed 24 mph (NNE)    
Max Wind Speed 30 mph    
Max Gust Speed 41 mph    
Visibility 10 miles    
Events      
Averages and records for this station are not official NWS values.
T = Trace of Precipitation, MM = Missing Value Source: NWS Daily Summary

Daily Weather History Graph

Daily Weather History Graph

Search for Another Location

Airport or City:

Trip Planner

Search our weather history database for the weather conditions in past years. The results will help you decide how hot, cold, wet, or windy it might be!

Date:

Astronomy

Mar. 12, 2013 Rise Set
Actual Time 8:07 AM AKDT 7:36 PM AKDT
Civil Twilight 7:23 AM AKDT 8:20 PM AKDT
Nautical Twilight 6:31 AM AKDT 9:13 PM AKDT
Astronomical Twilight 5:35 AM AKDT 10:09 PM AKDT
Moon 7:50 AM AKDT (3/12) 9:41 PM AKDT (3/12)
Length of Visible Light 12h 57m
Length of Day
11h 28m
New Moon, 1% of the Moon is Illuminated
Mar 12
New Moon
Mar 19
First Quarter
Mar 27
Full
Apr 2
Last Quarter
Apr 10
New

Hourly Weather History & Observations

Time (AKDT) Temp. Windchill Dew Point Humidity Pressure Visibility Wind Dir Wind Speed Gust Speed Precip Events Conditions
12:53 AM 19.0 °F 0.0 °F 1.9 °F 47% 30.32 in 10.0 mi North 29.9 mph 39.1 mph N/A   Clear
1:53 AM 19.0 °F 1.0 °F -0.0 °F 43% 30.31 in 10.0 mi North 26.5 mph 41.4 mph N/A   Clear
2:53 AM 19.0 °F 1.3 °F -2.9 °F 38% 30.31 in 10.0 mi North 25.3 mph 38.0 mph N/A   Clear
3:53 AM 18.0 °F 0.6 °F -5.1 °F 36% 30.32 in 10.0 mi North 23.0 mph 36.8 mph N/A   Clear
4:53 AM 16.0 °F -2.5 °F -6.0 °F 38% 30.31 in 10.0 mi North 24.2 mph 38.0 mph N/A   Clear
5:53 AM 16.0 °F -1.7 °F -8.0 °F 34% 30.31 in 10.0 mi North 21.9 mph 32.2 mph N/A   Clear
6:53 AM 15.1 °F -2.0 °F -9.9 °F 32% 30.32 in 10.0 mi North 19.6 mph 34.5 mph N/A   Partly Cloudy
7:53 AM 12.9 °F -3.9 °F -9.9 °F 35% 30.32 in 10.0 mi North 17.3 mph 29.9 mph N/A   Partly Cloudy
8:53 AM 14.0 °F -5.1 °F -11.0 °F 32% 30.30 in 10.0 mi NNE 24.2 mph 41.4 mph N/A   Partly Cloudy
9:53 AM 15.1 °F -2.9 °F -11.0 °F 31% 30.30 in 10.0 mi North 21.9 mph 31.1 mph N/A   Partly Cloudy
10:53 AM 17.1 °F 0.6 °F -9.9 °F 30% 30.30 in 10.0 mi North 19.6 mph 33.4 mph N/A   Partly Cloudy
11:53 AM 18.0 °F 0.9 °F -11.0 °F 27% 30.29 in 10.0 mi NNE 21.9 mph 29.9 mph N/A   Partly Cloudy
12:53 PM 19.0 °F 5.0 °F -9.9 °F 27% 30.28 in 10.0 mi NNE 15.0 mph 33.4 mph N/A   Partly Cloudy
1:53 PM 19.9 °F 3.9 °F -9.9 °F 26% 30.26 in 10.0 mi NNE 20.7 mph 35.7 mph N/A   Partly Cloudy
2:53 PM 19.0 °F 1.0 °F -9.0 °F 29% 30.24 in 10.0 mi NNE 26.5 mph 35.7 mph N/A   Partly Cloudy
3:53 PM 19.0 °F 1.6 °F -8.0 °F 30% 30.22 in 10.0 mi North 24.2 mph - N/A   Partly Cloudy
4:53 PM 19.0 °F 2.0 °F -8.0 °F 30% 30.21 in 10.0 mi NNE 23.0 mph 36.8 mph N/A   Partly Cloudy
5:53 PM 19.0 °F 3.6 °F -9.0 °F 29% 30.18 in 10.0 mi North 18.4 mph 31.1 mph N/A   Partly Cloudy
6:53 PM 17.1 °F -1.0 °F -9.0 °F 31% 30.17 in 10.0 mi North 24.2 mph 34.5 mph N/A   Clear
7:53 PM 15.1 °F -2.0 °F -9.0 °F 34% 30.17 in 10.0 mi North 19.6 mph 31.1 mph N/A   Partly Cloudy
8:53 PM 14.0 °F -3.0 °F -9.9 °F 34% 30.16 in 10.0 mi North 18.4 mph 28.8 mph N/A   Clear
9:53 PM 12.9 °F -5.7 °F -11.0 °F 34% 30.15 in 10.0 mi NNE 21.9 mph 33.4 mph N/A   Clear
11:53 PM 12.9 °F -3.4 °F -11.0 °F 34% 30.14 in 10.0 mi NNE 16.1 mph 32.2 mph N/A   Clear